Location: Unspecified
(48.7670°N, 0.0000°E)
Time: 04:35:02
(UTC+00:00)

Vanguard 2 Rocket - All Passes

Search period start: 26 June 2019 00:00
Search period end: 06 July 2019 00:00
Orbit: 555 x 3326 km, 32.9° (Epoch: 25 June)

Date Brightness Start Highest point End Pass type
(mag) Time Alt. Az. Time Alt. Az. Time Alt. Az.
26 Jun - 00:09:32 10° WSW 00:18:58 34° S 00:33:20 10° SE visible
26 Jun - 02:23:42 10° WSW 02:33:43 23° SSW 02:46:31 10° SSE visible
26 Jun - 20:59:40 10° SSW 21:05:37 26° SSE 21:14:39 10° ESE visible
26 Jun - 23:10:31 10° WSW 23:18:45 34° S 23:31:44 10° SE visible
27 Jun - 01:23:32 10° WSW 01:33:08 26° SSW 01:46:24 10° SSE visible
27 Jun - 03:43:12 10° SW 03:47:43 12° SW 03:52:35 10° SSW daylight
27 Jun - 20:01:56 10° SSW 20:06:27 19° SSE 20:12:40 10° ESE daylight
27 Jun - 22:11:49 10° SW 22:18:51 32° S 22:30:00 10° ESE visible
28 Jun - 00:23:57 10° WSW 00:32:44 29° SSW 00:45:38 10° SE visible
28 Jun - 02:39:50 10° WSW 02:47:15 16° SSW 02:56:07 10° S visible
28 Jun - 19:05:20 10° SSE 19:07:32 12° SE 19:10:04 10° SE daylight
28 Jun - 21:13:25 10° SW 21:19:17 28° SSE 21:28:18 10° ESE visible
28 Jun - 23:24:47 10° WSW 23:32:33 30° S 23:44:27 10° SE visible
29 Jun - 01:38:50 10° WSW 01:46:49 19° SSW 01:57:11 10° S visible
29 Jun - 20:15:21 10° SSW 20:20:01 22° SSE 20:26:41 10° ESE daylight
29 Jun - 22:25:57 10° WSW 22:32:40 29° S 22:43:04 10° SE visible
30 Jun - 00:38:48 10° WSW 00:46:31 22° SSW 00:57:12 10° SSE visible
30 Jun - 19:17:51 10° S 19:21:01 15° SSE 19:24:59 10° ESE daylight
30 Jun - 21:27:25 10° SW 21:33:04 27° S 21:41:41 10° ESE visible
30 Jun - 23:39:22 10° WSW 23:46:25 24° SSW 23:56:37 10° SSE visible
01 Jul - 01:56:01 10° SW 02:00:31 12° SSW 02:05:41 10° S visible
01 Jul - 20:29:08 10° SW 20:33:45 22° SSE 20:40:23 10° ESE daylight
01 Jul - 22:40:22 10° WSW 22:46:34 24° S 22:55:44 10° SE visible
02 Jul - 00:54:38 10° SW 01:00:20 15° SSW 01:07:29 10° S visible
02 Jul - 19:31:12 10° SSW 19:34:40 17° SSE 19:39:09 10° ESE daylight
02 Jul - 21:41:39 10° SW 21:46:57 24° S 21:54:44 10° SE visible
02 Jul - 23:54:35 10° SW 00:00:19 17° SSW 00:07:55 10° SSE visible
03 Jul - 18:34:08 10° S 18:35:45 11° SSE 18:37:31 10° SE daylight
03 Jul - 20:43:12 10° SW 20:47:36 21° S 20:53:47 10° SE visible
03 Jul - 22:55:12 10° SW 23:00:29 19° SSW 23:07:44 10° SSE visible
04 Jul - 19:45:01 10° SSW 19:48:27 17° SSE 19:52:55 10° SE daylight
04 Jul - 21:56:15 10° SW 22:00:53 19° S 22:07:17 10° SSE visible
05 Jul - 00:12:05 10° SW 00:14:14 11° SSW 00:16:36 10° SSW visible
05 Jul - 18:47:14 10° SSW 18:49:27 13° SSE 18:52:02 10° SE daylight
05 Jul - 20:57:35 10° SW 21:01:31 18° S 21:06:46 10° SE visible
05 Jul - 23:11:13 10° SW 23:14:27 12° SSW 23:18:19 10° S visible
